Volver al catálogo

TITAN 3C TRANSTAGE DEB

LostHEO
NORAD 27722·DEBRIS·🇺🇸 United States

Lanzado Dec 21, 1965 desde Cape Canaveral Space Force Station

Loading…

Próximos Pases (próximas 24 horas)

TLE

ObsoletoSource: Space-Track

Época: Oct 24, 2025, 09:16 UTC

1 27722U 65108BC  25297.38678725 -.00000060  00000-0  00000-0 0  9998
2 27722  26.5884 192.6689 6643158 212.5192 352.3836  2.54244475216636

Sigue TITAN 3C TRANSTAGE DEB en tiempo real con AllMySat

Download on the App Store